Weather History for KBDR - April, 2014

Change the Weather History Date:

Thursday, April 10, 2014

  Actual Average Record
Temperature  
Mean Temperature 43 °F 48 °F  
Max Temperature 54 °F 56 °F 81 °F (1955)
Min Temperature 32 °F 39 °F 26 °F (1997)
Degree Days  
Heating Degree Days 22 18  
Month to date heating degree days 198 192  
Since 1 July heating degree days 5180 4876  
Cooling Degree Days 0 0  
Month to date cooling degree days 0 0  
Year to date cooling degree days 0 0  
Moisture  
Dew Point 28 °F    
Average Humidity 54    
Maximum Humidity 75    
Minimum Humidity 33    
Precipitation  
Precipitation 0.00 in 0.15 in 3.15 in (1983)
Month to date precipitation 0.88 1.42  
Year to date precipitation 13.08 11.36  
Snow  
Snow 0.00 in 0.00 in T in (1974)
Month to date snowfall 0.0 0.5  
Since 1 July snowfall 57.0 27.2  
Snow Depth 0.00 in    
Sea Level Pressure  
Sea Level Pressure 30.13 in    
Wind  
Wind Speed 8 mph (SW)    
Max Wind Speed 20 mph    
Max Gust Speed 26 mph    
Visibility 10 miles    
Events      
T = Trace of Precipitation, MM = Missing Value Source: NWS Daily Summary

Daily Weather History Graph

Daily Weather History Graph

Search for Another Location

Airport or City:

Trip Planner

Search our weather history database for the weather conditions in past years. The results will help you decide how hot, cold, wet, or windy it might be!

Date:

Astronomy

Apr. 10, 2014 Rise Set
Actual Time 6:21 AM EDT 7:27 PM EDT
Civil Twilight 5:52 AM EDT 7:55 PM EDT
Nautical Twilight 5:19 AM EDT 8:29 PM EDT
Astronomical Twilight 4:43 AM EDT 9:04 PM EDT
Moon 3:06 PM EDT (4/10) 3:45 AM EDT (4/10)
Length of Visible Light 14h 02m
Length of Day
13h 06m
Waxing Gibbous, 79% of the Moon is Illuminated
Apr 10
Waxing Gibbous
Apr 15
Full
Apr 22
Last Quarter
Apr 29
New
May 6
First Quarter

Hourly Weather History & Observations

Time (EDT) Temp. Windchill Dew Point Humidity Pressure Visibility Wind Dir Wind Speed Gust Speed Precip Events Conditions
12:52 AM 42.1 °F 40.2 °F 15.1 °F 34% 30.06 in 10.0 mi NNW 3.5 mph - N/A   Clear
1:52 AM 36.0 °F 33.3 °F 21.0 °F 55% 30.06 in 10.0 mi ESE 3.5 mph - N/A   Clear
2:52 AM 37.0 °F - 19.0 °F 48% 30.07 in 10.0 mi Calm Calm - N/A   Clear
3:52 AM 37.9 °F 35.5 °F 28.0 °F 68% 30.08 in 10.0 mi WSW 3.5 mph - N/A   Clear
4:52 AM 34.0 °F - 26.1 °F 73% 30.11 in 10.0 mi Calm Calm - N/A   Clear
5:52 AM 33.1 °F 30.0 °F 25.0 °F 72% 30.13 in 10.0 mi WNW 3.5 mph - N/A   Clear
6:52 AM 34.0 °F 31.0 °F 26.1 °F 73% 30.17 in 10.0 mi NW 3.5 mph - N/A   Clear
7:01 AM 35.1 °F 32.2 °F 25.0 °F 67% 30.18 in 1.8 mi NW 3.5 mph - N/A   Haze
7:10 AM 36.0 °F - 25.0 °F 64% 30.18 in 3.0 mi Calm Calm - N/A   Haze
7:52 AM 39.9 °F 36.7 °F 27.0 °F 60% 30.19 in 10.0 mi WSW 4.6 mph - N/A   Clear
8:52 AM 43.0 °F 38.8 °F 28.9 °F 58% 30.21 in 10.0 mi SW 6.9 mph - N/A   Clear
9:52 AM 46.4 °F 42.9 °F 28.4 °F 50% 30.22 in 10.0 mi SW 6.9 mph - N/A   Clear
10:52 AM 50.0 °F - 25.0 °F 38% 30.22 in 10.0 mi SW 10.4 mph - N/A   Clear
11:52 AM 52.0 °F - 28.0 °F 40% 30.21 in 10.0 mi SW 10.4 mph - N/A   Clear
12:52 PM 54.0 °F - 30.0 °F 40% 30.18 in 10.0 mi South 15.0 mph - N/A   Clear
1:52 PM 54.0 °F - 27.0 °F 35% 30.17 in 10.0 mi South 17.3 mph - N/A   Clear
2:52 PM 54.0 °F - 26.1 °F 34% 30.15 in 10.0 mi South 13.8 mph - N/A   Clear
3:52 PM 54.0 °F - 27.0 °F 35% 30.13 in 10.0 mi SSW 15.0 mph - N/A   Clear
4:52 PM 53.1 °F - 30.0 °F 41% 30.11 in 10.0 mi SSW 15.0 mph - N/A   Clear
5:52 PM 51.1 °F - 33.1 °F 50% 30.09 in 10.0 mi WSW 5.8 mph - N/A   Clear
6:52 PM 50.0 °F - 33.1 °F 52% 30.08 in 10.0 mi Variable 6.9 mph - N/A   Clear
7:52 PM 46.9 °F - 36.0 °F 66% 30.08 in 10.0 mi West 6.9 mph - N/A   Clear
8:52 PM 46.9 °F - 37.9 °F 71% 30.07 in 10.0 mi West 4.6 mph - N/A   Clear
9:52 PM 46.9 °F - 37.9 °F 71% 30.07 in 10.0 mi WSW 5.8 mph - N/A   Clear
10:52 PM 48.9 °F - 37.9 °F 66% 30.06 in 10.0 mi SW 12.7 mph 20.7 mph N/A   Clear
11:52 PM 46.9 °F - 37.0 °F 68% 30.05 in 10.0 mi SW 4.6 mph - N/A   Mostly Cloudy